Home   Weather   Yaren   Past weeks

Flag for Nauru Past Weather in Yaren, Nauru — Yesterday and Last 2 Weeks

Now
79 °F

Partly cloudy.


Feels Like: 82 °F
Forecast: 79 / 85 °F
Wind: 6 mph from East

Location: Betio Village

Current Time: Jan 17, 2017 at 3:32:21 am

Latest Report: Jan 17, 2017 at 2:00 am


Visibility: N/A

Pressure: 29.80 "Hg

Humidity: 84%

Dew Point: 73 °F

Location of YarenLocation

Past Weather in Yaren — Graph

°F

Yaren Temperature Yesterday

Maximum temperature yesterday: 88 °F (at 11:00 am)
Minimum temperature yesterday: 81 °F (at 12:00 am)
Average temperature yesterday: 83 °F

High & Low Weather Summary for the Past Weeks

 TemperatureHumidityPressure
High102 °F (Jan 9, 6:00 pm)100% (Jan 14, 4:00 am)29.86 "Hg (Jan 14, 4:00 am)
Low77 °F (Jan 14, 3:00 am)42% (Jan 9, 6:00 pm)29.59 "Hg (Jan 6, 3:00 pm)
Average84 °F77%29.72 "Hg
* Reported Jan 2 2:00 am — Jan 17 2:00 am, Yaren, Weather by CustomWeather, © 2017

Note: Actual official high and low records may vary slightly from our data, if they occured in-between our weather recording intervals... More about our weather records

Advertising

Yaren Weather History for the Previous 24 Hours

Scroll right to see more
 ConditionsComfort  
Time TempWeatherWind HumidityBarometerVisibility
2:00 am
Tue, Jan 17
79 °FPartly cloudy.6 mph84%29.80 "HgN/A
1:00 am79 °FPassing clouds.5 mph84%29.80 "HgN/A
12:00 am81 °FPassing clouds.8 mph79%29.83 "HgN/A
11:00 pm
Mon, Jan 16
81 °FPassing clouds.7 mph79%29.86 "HgN/A
10:00 pm81 °FPassing clouds.7 mph79%29.86 "HgN/A
9:00 pm81 °FPassing clouds.9 mph79%29.86 "HgN/A
8:00 pm81 °FPassing clouds.6 mph79%29.83 "HgN/A
7:00 pm82 °FPassing clouds.6 mph74%29.83 "HgN/A
6:00 pm84 °FPassing clouds.8 mph70%29.80 "HgN/A
5:00 pm88 °FPassing clouds.8 mph66%29.74 "HgN/A
4:00 pm88 °FPassing clouds.9 mph62%29.71 "HgN/A
3:00 pm88 °FPassing clouds.10 mph66%29.71 "HgN/A
2:00 pm88 °FPassing clouds.8 mphN/A29.74 "HgN/A
1:00 pm88 °FPassing clouds.9 mph70%29.77 "HgN/A
11:00 am88 °FPassing clouds.9 mph70%29.77 "HgN/A
10:00 am86 °FPassing clouds.9 mph75%29.80 "HgN/A
9:00 am84 °FPassing clouds.9 mph74%29.77 "HgN/A
8:00 am84 °FPassing clouds.8 mph79%29.77 "HgN/A
7:00 am81 °FPassing clouds.10 mph84%29.74 "HgN/A
6:00 am81 °FPassing clouds.9 mph84%29.74 "HgN/A
5:00 am81 °FPassing clouds.10 mph84%29.71 "HgN/A
4:00 am81 °FPassing clouds.12 mph84%29.71 "HgN/A
3:00 am81 °FPassing clouds.9 mph84%29.71 "HgN/A
Weather by CustomWeather, © 2017

See weather overviewHow to use our weather pages